When you browse on this site, cookies collect data to enhance your experience and personalize the content and advertising you see.
Visit our Privacy Policy to learn more. By continuing to use the site, you agree to this use of cookies and data.
  • In Czech Republic
  • List of Countries
  • For 7 days
  • Water Temperature
  • Satellite Maps
  • Weather Map
  • Weather Widgets
  • user-avatar
    Login

    Hourly Weather Altrincham

    Today, 15 December, Saturday

    Time Temperature Precipitation Wind Pressure Humidity
    00:00 -2°C° 0 mm 6 mps 760 mmHg 77%
    01:00 -2°C° 0 mm 7 mps 759 mmHg 75%
    02:00 -2°C° 0 mm 7 mps 759 mmHg 73%
    03:00 -1°C° 0 mm 8 mps 758 mmHg 70%
    04:00 -2°C° 0.1 mm 8 mps 758 mmHg 72%
    05:00 -2°C° 0.1 mm 8 mps 757 mmHg 74%
    06:00 -2°C° 0 mm 8 mps 756 mmHg 75%
    07:00 -3°C° 0.1 mm 9 mps 756 mmHg 75%
    08:00 -3°C° 0.1 mm 9 mps 755 mmHg 76%
    09:00 -3°C° 0.1 mm 9 mps 754 mmHg 76%
    10:00 -3°C° 0 mm 10 mps 753 mmHg 76%
    11:00 -2°C° 0 mm 10 mps 752 mmHg 75%
    12:00 -2°C° 0 mm 10 mps 751 mmHg 74%
    13:00 -2°C° 1 mm 11 mps 749 mmHg 77%
    14:00 -2°C° 1 mm 11 mps 747 mmHg 80%
    15:00 -1°C° 1 mm 11 mps 746 mmHg 83%
    16:00 -1°C° 1.8 mm 11 mps 744 mmHg 84%
    17:00 +1°C° 1.8 mm 11 mps 743 mmHg 86%
    18:00 +2°C° 1.8 mm 11 mps 741 mmHg 87%
    19:00 +3°C° 0.2 mm 10 mps 741 mmHg 87%
    20:00 +5°C° 0.2 mm 9 mps 740 mmHg 86%
    21:00 +6°C° 0.2 mm 8 mps 740 mmHg 85%
    22:00 +5°C° 0.6 mm 8 mps 741 mmHg 83%
    23:00 +5°C° 0.6 mm 8 mps 742 mmHg 82%

    Tomorrow, 16 December, Sunday

    Time Temperature Precipitation Wind Pressure Humidity
    00:00 +5°C° 0.6 mm 8 mps 743 mmHg 80%
    01:00 +4°C° 0.1 mm 8 mps 744 mmHg 80%
    02:00 +4°C° 0.1 mm 7 mps 745 mmHg 80%
    03:00 +4°C° 0.1 mm 6 mps 746 mmHg 81%
    04:00 +3°C° 0 mm 5 mps 746 mmHg 83%
    05:00 +3°C° 0 mm 5 mps 747 mmHg 84%
    06:00 +4°C° 0 mm 4 mps 747 mmHg 86%
    07:00 +3°C° 0 mm 4 mps 748 mmHg 87%
    08:00 +3°C° 0 mm 4 mps 748 mmHg 88%
    09:00 +3°C° 0 mm 3 mps 749 mmHg 89%
    10:00 +4°C° 0 mm 3 mps 749 mmHg 87%
    11:00 +4°C° 0 mm 3 mps 749 mmHg 84%
    12:00 +5°C° 0 mm 3 mps 749 mmHg 82%
    13:00 +5°C° 0 mm 3 mps 749 mmHg 84%
    14:00 +5°C° 0 mm 3 mps 749 mmHg 86%
    15:00 +5°C° 0 mm 3 mps 749 mmHg 88%
    16:00 +5°C° 0.2 mm 3 mps 749 mmHg 90%
    17:00 +4°C° 0.2 mm 3 mps 750 mmHg 91%
    18:00 +4°C° 0.2 mm 3 mps 750 mmHg 93%
    19:00 +4°C° 0.1 mm 3 mps 750 mmHg 93%
    20:00 +4°C° 0.1 mm 3 mps 751 mmHg 93%
    21:00 +4°C° 0.1 mm 2 mps 751 mmHg 93%
    22:00 +4°C° 0 mm 2 mps 752 mmHg 93%
    23:00 +4°C° 0 mm 2 mps 752 mmHg 92%

    Day after tomorrow, 17 December, Monday

    Time Temperature Precipitation Wind Pressure Humidity
    00:00 +4°C° 0 mm 2 mps 753 mmHg 91%
    01:00 +3°C° 0 mm 3 mps 753 mmHg 91%
    02:00 +3°C° 0 mm 3 mps 753 mmHg 91%
    03:00 +3°C° 0 mm 3 mps 754 mmHg 90%
    04:00 +2°C° 0 mm 3 mps 754 mmHg 90%
    05:00 +2°C° 0 mm 3 mps 755 mmHg 90%
    06:00 +2°C° 0 mm 3 mps 755 mmHg 90%
    07:00 +2°C° 0 mm 3 mps 756 mmHg 91%
    08:00 +2°C° 0 mm 3 mps 756 mmHg 91%
    09:00 +2°C° 0 mm 3 mps 756 mmHg 91%
    10:00 +4°C° 0 mm 4 mps 756 mmHg 88%
    11:00 +5°C° 0 mm 4 mps 756 mmHg 86%
    12:00 +6°C° 0 mm 5 mps 756 mmHg 84%
    13:00 +6°C° 0 mm 5 mps 756 mmHg 85%
    14:00 +6°C° 0 mm 5 mps 756 mmHg 86%
    15:00 +5°C° 0 mm 6 mps 755 mmHg 88%
    16:00 +7°C° 0.2 mm 6 mps 755 mmHg 88%
    17:00 +6°C° 0.2 mm 7 mps 755 mmHg 89%
    18:00 +6°C° 0.2 mm 7 mps 755 mmHg 89%
    19:00 +8°C° 0.1 mm 7 mps 755 mmHg 89%
    20:00 +8°C° 0.1 mm 7 mps 754 mmHg 88%
    21:00 +8°C° 0.1 mm 7 mps 754 mmHg 88%
    22:00 +8°C° 0 mm 7 mps 754 mmHg 87%
    23:00 +9°C° 0 mm 7 mps 754 mmHg 87%

    18 December, Tuesday

    Time Temperature Precipitation Wind Pressure Humidity
    00:00 +9°C° 0 mm 8 mps 754 mmHg 86%
    01:00 +9°C° 0 mm 8 mps 753 mmHg 86%
    02:00 +9°C° 0 mm 8 mps 753 mmHg 85%
    03:00 +9°C° 0 mm 8 mps 752 mmHg 85%
    04:00 +9°C° 0.1 mm 8 mps 752 mmHg 84%
    05:00 +9°C° 0.1 mm 8 mps 751 mmHg 84%
    06:00 +8°C° 0.1 mm 9 mps 750 mmHg 83%
    07:00 +8°C° 0.1 mm 9 mps 750 mmHg 82%
    08:00 +8°C° 0.1 mm 10 mps 749 mmHg 81%
    09:00 +8°C° 0.1 mm 10 mps 749 mmHg 80%
    10:00 +7°C° 0.4 mm 11 mps 748 mmHg 78%
    11:00 +7°C° 0.4 mm 11 mps 747 mmHg 76%
    12:00 +7°C° 0.4 mm 11 mps 746 mmHg 74%
    13:00 +7°C° 0.5 mm 11 mps 745 mmHg 76%
    14:00 +7°C° 0.5 mm 11 mps 744 mmHg 77%
    15:00 +7°C° 0.5 mm 11 mps 744 mmHg 79%
    16:00 +7°C° 0.9 mm 10 mps 743 mmHg 80%
    17:00 +7°C° 0.9 mm 10 mps 743 mmHg 82%
    18:00 +7°C° 0.9 mm 9 mps 743 mmHg 83%
    19:00 +7°C° 1.5 mm 9 mps 743 mmHg 85%
    20:00 +6°C° 1.5 mm 8 mps 743 mmHg 86%
    21:00 +6°C° 1.5 mm 7 mps 743 mmHg 87%
    22:00 +7°C° 0.5 mm 6 mps 744 mmHg 85%
    23:00 +7°C° 0.5 mm 6 mps 745 mmHg 83%

    19 December, Wednesday

    Time Temperature Precipitation Wind Pressure Humidity
    00:00 +6°C° 0.5 mm 5 mps 745 mmHg 81%
    01:00 +6°C° 0 mm 5 mps 746 mmHg 83%
    02:00 +6°C° 0 mm 5 mps 747 mmHg 84%
    03:00 +5°C° 0 mm 5 mps 748 mmHg 86%
    04:00 +5°C° 0 mm 5 mps 748 mmHg 87%
    05:00 +5°C° 0 mm 4 mps 748 mmHg 87%
    06:00 +5°C° 0 mm 4 mps 749 mmHg 88%
    07:00 +4°C° 0 mm 4 mps 749 mmHg 89%
    08:00 +4°C° 0 mm 4 mps 750 mmHg 89%
    09:00 +4°C° 0 mm 4 mps 750 mmHg 90%
    10:00 +5°C° 0 mm 4 mps 750 mmHg 86%
    11:00 +6°C° 0 mm 4 mps 751 mmHg 82%
    12:00 +6°C° 0 mm 5 mps 751 mmHg 78%
    13:00 +6°C° 0 mm 4 mps 751 mmHg 78%
    14:00 +6°C° 0 mm 4 mps 751 mmHg 79%
    15:00 +6°C° 0 mm 4 mps 750 mmHg 80%
    16:00 +6°C° 0.1 mm 4 mps 751 mmHg 81%
    17:00 +5°C° 0.1 mm 5 mps 751 mmHg 82%
    18:00 +5°C° 0.1 mm 5 mps 751 mmHg 84%
    19:00 +5°C° 0 mm 5 mps 751 mmHg 85%
    20:00 +3°C° 0 mm 5 mps 751 mmHg 86%
    21:00 +3°C° 0 mm 5 mps 751 mmHg 87%
    22:00 +3°C° 0 mm 5 mps 751 mmHg 87%
    23:00 +3°C° 0 mm 5 mps 751 mmHg 88%

    20 December, Thursday

    Time Temperature Precipitation Wind Pressure Humidity
    00:00 +3°C° 0 mm 5 mps 751 mmHg 88%
    01:00 +3°C° 0.2 mm 5 mps 751 mmHg 88%
    02:00 +3°C° 0.2 mm 5 mps 752 mmHg 87%
    03:00 +5°C° 0.2 mm 5 mps 752 mmHg 87%
    04:00 +5°C° 0.3 mm 5 mps 752 mmHg 87%
    05:00 +5°C° 0.3 mm 5 mps 752 mmHg 88%
    06:00 +5°C° 0.3 mm 5 mps 752 mmHg 88%
    07:00 +5°C° 0 mm 5 mps 753 mmHg 88%
    08:00 +5°C° 0 mm 5 mps 753 mmHg 88%
    09:00 +5°C° 0 mm 4 mps 754 mmHg 88%
    10:00 +5°C° 0 mm 4 mps 754 mmHg 85%
    11:00 +6°C° 0 mm 5 mps 754 mmHg 83%
    12:00 +7°C° 0 mm 5 mps 755 mmHg 80%
    13:00 +7°C° 0 mm 5 mps 755 mmHg 81%
    14:00 +6°C° 0 mm 4 mps 755 mmHg 82%
    15:00 +6°C° 0 mm 4 mps 755 mmHg 83%
    16:00 +6°C° 0 mm 4 mps 755 mmHg 84%
    17:00 +6°C° 0 mm 4 mps 755 mmHg 86%
    18:00 +5°C° 0 mm 4 mps 754 mmHg 87%
    19:00 +5°C° 0.2 mm 5 mps 754 mmHg 87%
    20:00 +5°C° 0.2 mm 6 mps 753 mmHg 86%
    21:00 +5°C° 0.2 mm 6 mps 752 mmHg 86%
    22:00 +5°C° 1.1 mm 7 mps 751 mmHg 87%
    23:00 +6°C° 1.1 mm 8 mps 749 mmHg 88%
    Show more